Regional Weather Roundup
Issued by NWS State College, PA

Current Version | Previous Version | Text Only | Print | Product List | Glossary On
Versions: 1 2 3 4 5 6 7 8 9 10 11 12 13 14 15 16 17 18 19 20 21 22 23 24 25 26 27 28 29 30 31 32 33 34 35 36 37 38 39 40 41 42 43 44 45 46 47 48 49 50
000
ASUS41 KCTP 270510
RWRCTP

REGIONAL WEATHER ROUNDUP
NATIONAL WEATHER SERVICE STATE COLLEGE PA
1200 AM EST THU NOV 27 2014

Note: "fair" indicates few or no clouds below 12,000 feet with no
significant weather and/or obstructions to visibility.

* = STATION THAT DOES NOT REPORT PRECIPITATION /E.G. RAIN...SNOW...ETC/
    THUNDER OR FOG.

PAZ002>004-007>009-013>016-020>023-029>032-270600-
WESTERN PENNSYLVANIA

CITY           SKY/WX    TMP DP  RH WIND       PRES   REMARKS
ERIE           CLOUDY    34  28  79 NE9       30.02S
MEADVILLE      CLOUDY    32  28  85 CALM      29.98R
FRANKLIN*      CLOUDY    30  27  86 CALM      29.99S
NEW CASTLE       N/A     32  30  92 CALM      30.02S
BEAVER COUNTY  NOT AVBL
BUTLER*        CLOUDY    32  30  93 SW5       30.01R
PITTSBURGH INT CLOUDY    32  31  96 SW3       30.00R FOG
PITTSBURGH     CLOUDY    32  29  88 W6        29.99R FOG
INDIANA*       CLOUDY    32  32 100 CALM      30.01S FOG
LATROBE        CLOUDY    32  32 100 CALM      30.02R FOG
WASHINGTON CO* CLOUDY    32  28  86 CALM      30.02R
$$

PAZ004>006-010>012-017>019-024>028-033>037-041-042-045-046-049>053-270600-
CENTRAL PENNSYLVANIA

CITY           SKY/WX    TMP DP  RH WIND       PRES   REMARKS
BRADFORD       CLOUDY    28  23  81 NW3       29.94S
DUBOIS         CLOUDY    30  28  92 CALM      29.95R
CLEARFIELD     CLOUDY    31  28  89 CALM      29.96S
JOHNSTOWN      FOG       29  28  96 W8        29.92S VSB 1/4
ALTOONA        CLOUDY    31  30  96 CALM      29.95F
STATE COLLEGE  CLOUDY    31  28  86 CALM      29.96F
WILLIAMSPORT   FLURRIES  32  29  88 W8        29.97S
SELINSGROVE    CLOUDY    33  30  88 CALM      29.98R
FT INDIANTOWN  CLOUDY    34  29  80 VRB3      29.95R
CAPITAL CITY   CLOUDY    35  29  78 NW7       29.97S
HARRISBURG     CLOUDY    34  29  82 NW5       29.96S
YORK           CLOUDY    34  31  88 W3        29.97R
$$

PAZ038>040-043-044-047-048-054-055-060>062-067>071-270600-
EASTERN PENNSYLVANIA

CITY           SKY/WX    TMP DP  RH WIND       PRES   REMARKS
SCRANTON       CLOUDY    32  27  81 W10       29.91R
MOUNT POCONO   MIX PCPN  29  25  85 NW12      29.82S
ALLENTOWN      CLOUDY    35  29  78 W6        29.90R
QUAKERTOWN*    MOCLDY    34  32  93 NW3       29.90R
READING        CLOUDY    36  30  79 NW6       29.93R
LANCASTER      CLOUDY    33  30  88 W10       29.95R
COATESVILLE    CLOUDY    32  32 100 W12       29.92S
POTTSTOWN      CLOUDY    33  31  92 W6        29.93R
BLUE BELL      PTCLDY    36  32  87 W5        29.90R
DOYLESTOWN     CLOUDY    33  31  92 W5        29.88R
WILLOW GROVE   NOT AVBL
NORTH PHILA    CLOUDY    37  30  75 W7        29.92R
PHILADELPHIA   CLOUDY    38  31  76 W8        29.93R
$$


USA.gov is the U.S. government's official web portal to all federal, state and local government web resources and services.